sat.trackr.live / text

‹ back to catalog

ONEWEB-0037

NORAD 45440 · 2020-020S

PAYLOAD ACTIVE UNKNOWN

§ Identity

Operator
Country
UK
Launch date
2020-03-21
Launch site
TYMSC
Launch vehicle
Mass (kg)
RCS (m²)

Purposes: comms

External: N2YO · Heavens-Above · Gunter

§ Orbital elements

Epoch: 2026-09-20T01:43:07.461696Z

Period
109.81 min
Inclination
87.8984°
Eccentricity
0.0001684
Mean motion
13.11415672 rev/d
Perigee alt
1,216.4 km
Apogee alt
1,219.0 km
Semi-major
7,595.8 km
B*
-1.2741e-3
RAAN
2.1837°
Arg perigee
106.4527°
Mean anomaly
253.6786°
Rev number
31,513

§ Raw data

ONEWEB-00371 45440U 20020S   26263.07161414 -.00000439  00000+0 -12741-2 0  99982 45440  87.8984   2.1837 0001684 106.4527 253.6786 13.11415672315139

JSON: /api/v1/satellites/45440 · /tle

For live sub-satellite position, see the globe view (requires WebGL).

§ Visibility from observer

Set your observer location to see the next 7 days of passes ≥ 10°. The values pass through the URL so the page stays shareable.

No JS? Fill the form by hand. The geolocation button needs JavaScript.